Regional Weather Roundup
Issued by NWS Mt. Holly, NJ

Home | Current Version | Previous Version | Text Only | Print | Product List | Glossary On
Versions: 1 2 3 4 5 6 7 8 9 10 11 12 13 14 15 16 17 18 19 20 21 22 23 24 25 26 27 28 29 30 31 32 33 34 35 36 37 38 39 40 41 42 43 44 45 46 47 48 49 50
000
ASUS41 KPHI 312011
RWRPHI

REGIONAL WEATHER ROUNDUP
NATIONAL WEATHER SERVICE MOUNT HOLLY NJ
400 PM EDT MON AUG 31 2015

NOTE:  "FAIR" INDICATES FEW OR NO CLOUDS BELOW 12,000 FEET WITH NO
SIGNIFICANT WEATHER AND/OR OBSTRUCTIONS TO VISIBILITY.

 * = STATION DOES NOT REPORT PRECIPITATION (E.G. RAIN, SNOW, ETC.)
        OR FOG.

NJZ015>026-312100-
SOUTHERN NEW JERSEY

CITY           SKY/WX    TMP DP  RH WIND       PRES   REMARKS
POMONA         PTSUNNY   88  64  44 SW8G18    30.01F
WILDWOOD*      CLOUDY    84  64  51 W13       30.05R
MILLVILLE      CLOUDY    84  67  56 VRB5      30.03S
WRIGHTSTOWN    PTSUNNY   87  68  53 W12       29.96F HX  91
MOUNT HOLLY    CLOUDY    88  67  49 SW7       29.99F HX  91
TRENTON        PTSUNNY   89  66  46 SW12      29.98F HX  91

$$
NJZ001>014-312100-
NORTHERN NEW JERSEY

CITY           SKY/WX    TMP DP  RH WIND       PRES   REMARKS
SUSSEX         MOSUNNY   88  66  48 SW6       29.97F HX  90
ANDOVER*         N/A     87  69  54 CALM      29.99F HX  91
MORRISTOWN     PTSUNNY   90  66  45 W8G16     29.97F HX  92
NEWARK         PTSUNNY   92  63  38 W13G21    29.95F HX  93
TETERBORO      PTSUNNY   90  64  42 W10G22    29.93F HX  91
CALDWELL       MOSUNNY   90  65  43 W8        29.95F HX  92
SOMERVILLE     MOSUNNY   91  66  43 W8        29.95F HX  93
ALLAIRE*       PTSUNNY   88  66  48 W9        29.99F HX  90
TOMS RIVER*    PTSUNNY   90  66  45 W9        29.99F HX  92

$$
PAZ043-044-047-054-055-060>062-066>071-312100-
EASTERN PENNSYLVANIA

CITY           SKY/WX    TMP DP  RH WIND       PRES   REMARKS
PHILADELPHIA   PTSUNNY   88  68  51 SW13      30.00F HX  91
NORTH PHILA    PTSUNNY   89  64  43 SW10      30.00F HX  90
BLUE BELL      PTSUNNY   88  70  55 SW6       30.00F HX  92
DOYLESTOWN     MOSUNNY   87  64  46 W7        29.99F
QUAKERTOWN*    MOSUNNY   88  66  48 SW6       30.02F HX  90
POTTSTOWN      MOSUNNY   87  67  51 SW8       30.02F HX  90
LANCASTER      MOSUNNY   88  65  46 SW10      30.02F HX  90
COATESVILLE    PTSUNNY   84  68  58 SW5       30.04F
READING        MOSUNNY   88  67  49 W9        29.99F HX  91
ALLENTOWN      MOSUNNY   90  66  45 W13G21    29.99F HX  92
MOUNT POCONO   MOSUNNY   81  63  54 W13       30.06F
HAZLETON       MOSUNNY   82  64  54 NW12      30.09F
WILKES BARRE   MOSUNNY   76  76 100 CALM      30.01F

$$
DEZALL-MDZ008-012-015-019-020-312100-
DELAWARE AND EASTERN MARYLAND

CITY           SKY/WX    TMP DP  RH WIND       PRES   REMARKS
WILMINGTON     CLOUDY    87  69  54 W10       30.02F HX  91
DOVER          CLOUDY    85  66  53 SW14      30.02S
GEORGETOWN     PTSUNNY   84  67  56 SW14      30.06S
EASTON         PTSUNNY   82  68  61 SW9       30.09F
ABERDEEN       PTSUNNY   86  70  58 S12       30.02F HX  90
PATUXENT       MOSUNNY   86  67  52 VRB5      30.06S
OCEAN CITY     PTSUNNY   87  63  44 W10       30.06F
WALLOPS ISLAND MOSUNNY   84  67  56 SW10      30.08S
CAMBRIDGE      MOSUNNY   84  66  54 SW5       30.06S
SALISBURY      MOSUNNY   84  66  54 SW10      30.06F

$$
PAZ001-021-NYZ056-072-MDZ011-DCZ001-312100-
OTHER NEARBY LOCATIONS

CITY           SKY/WX    TMP DP  RH WIND       PRES   REMARKS
HARRISBURG     PTSUNNY   83  70  64 VRB7      30.01F
STATE COLLEGE  MOSUNNY   86  64  48 NW9       30.06F
WILLIAMSPORT   MOSUNNY   87  67  51 W9        29.99F HX  90
BINGHAMTON     MOSUNNY   82  64  54 NW12      30.04F
NEW YORK CITY  MOSUNNY   91  64  40 VRB5      29.98F HX  92
BALTIMORE      CLOUDY    86  64  47 SW6       30.03F
WASHINGTON DC  PTSUNNY   87  68  52 S9        30.05F HX  90

$$



USA.gov is the U.S. government's official web portal to all federal, state and local government web resources and services.